| time (UTC) | temp F | wind direction | speed MPH | gust MPH | rain 1hr in | rain 24hr in | rain mn in | humidity % | barometer mb |
| 20260509201611 | 89 | 211 | 3.0 | 8.0 | 0.00 | 0.03 | 0.03 | 49 | 1008.6 |
| 20260509200025 | 88 | 160 | 3.0 | 7.0 | 0.00 | 0.03 | 0.03 | 49 | 1008.7 |
| 20260509194532 | 87 | 90 | 1.0 | 7.0 | 0.00 | 0.03 | 0.03 | 48 | 1009.2 |
| 20260509193034 | 87 | 71 | 3.0 | 10.0 | 0.00 | 0.03 | 0.03 | 50 | 1009.3 |
| 20260509191544 | 87 | 5 | 3.0 | 9.0 | 0.00 | 0.03 | 0.03 | 51 | 1009.4 |
| 20260509190051 | 87 | 42 | 2.0 | 8.0 | 0.00 | 0.03 | 0.03 | 51 | 1009.6 |
| 20260509184505 | 86 | 5 | 2.0 | 6.0 | 0.00 | 0.04 | 0.03 | 53 | 1009.7 |
| 20260509183027 | 85 | 41 | 3.0 | 8.0 | 0.00 | 0.04 | 0.03 | 54 | 1009.8 |
| 20260509181550 | 84 | 107 | 2.0 | 11.0 | 0.00 | 0.04 | 0.03 | 56 | 1010.1 |
| 20260509180052 | 84 | 335 | 4.0 | 8.0 | 0.00 | 0.04 | 0.03 | 53 | 1010.4 |
| 20260509174501 | 84 | 329 | 4.0 | 9.0 | 0.00 | 0.04 | 0.03 | 55 | 1010.5 |
| 20260509173036 | 83 | 10 | 1.0 | 13.0 | 0.00 | 0.04 | 0.03 | 58 | 1010.6 |
| 20260509171604 | 83 | 26 | 4.0 | 9.0 | 0.00 | 0.04 | 0.03 | 58 | 1010.7 |
| 20260509170007 | 82 | 315 | 4.0 | 9.0 | 0.00 | 0.04 | 0.03 | 64 | 1010.8 |
| 20260509164526 | 82 | 287 | 3.0 | 9.0 | 0.00 | 0.04 | 0.03 | 62 | 1010.9 |
| 20260509163102 | 81 | 273 | 3.0 | 9.0 | 0.00 | 0.04 | 0.03 | 63 | 1011.0 |
| 20260509161526 | 80 | 355 | 3.0 | 9.0 | 0.00 | 0.04 | 0.03 | 62 | 1011.0 |
| 20260509160047 | 79 | 348 | 2.0 | 5.0 | 0.00 | 0.04 | 0.03 | 66 | 1011.1 |
| 20260509154618 | 78 | 344 | 4.0 | 8.0 | 0.00 | 0.04 | 0.03 | 68 | 1011.2 |
| 20260509153031 | 77 | 304 | 5.0 | 10.0 | 0.00 | 0.04 | 0.03 | 69 | 1011.3 |
| 20260509151553 | 76 | 355 | 5.0 | 11.0 | 0.00 | 0.04 | 0.03 | 72 | 1011.3 |
| 20260509150117 | 76 | 292 | 5.0 | 11.0 | 0.00 | 0.04 | 0.03 | 73 | 1011.5 |
| 20260509144539 | 76 | 322 | 5.0 | 9.0 | 0.00 | 0.04 | 0.03 | 74 | 1011.3 |
| 20260509143059 | 75 | 314 | 3.0 | 8.0 | 0.00 | 0.04 | 0.03 | 76 | 1011.3 |
| 20260509141516 | 74 | 16 | 4.0 | 9.0 | 0.00 | 0.04 | 0.03 | 77 | 1011.3 |
| 20260509140054 | 73 | 307 | 4.0 | 8.0 | 0.00 | 0.04 | 0.03 | 79 | 1011.3 |
| 20260509134504 | 72 | 319 | 3.0 | 5.0 | 0.00 | 0.04 | 0.03 | 83 | 1011.1 |
| 20260509133033 | 71 | 331 | 5.0 | 9.0 | 0.00 | 0.04 | 0.03 | 84 | 1010.9 |
| 20260509131605 | 70 | 284 | 2.0 | 4.0 | 0.00 | 0.04 | 0.03 | 88 | 1010.6 |
| 20260509130114 | 69 | 9 | 0.0 | 4.0 | 0.00 | 0.04 | 0.03 | 90 | 1010.3 |
| 20260509124524 | 68 | 340 | 4.0 | 8.0 | 0.00 | 0.04 | 0.03 | 91 | 1009.9 |
| 20260509123029 | 68 | 21 | 3.0 | 6.0 | 0.00 | 0.04 | 0.03 | 91 | 1009.7 |
| 20260509121551 | 68 | 337 | 4.0 | 9.0 | 0.00 | 0.04 | 0.03 | 91 | 1009.8 |
| 20260509120000 | 68 | 355 | 2.0 | 9.0 | 0.00 | 0.04 | 0.03 | 91 | 1009.8 |
| 20260509114516 | 68 | 326 | 3.0 | 8.0 | 0.00 | 0.04 | 0.03 | 91 | 1009.6 |
| 20260509113036 | 69 | 331 | 5.0 | 10.0 | 0.00 | 0.04 | 0.03 | 91 | 1010.0 |
| 20260509111538 | 69 | 321 | 6.0 | 11.0 | 0.00 | 0.04 | 0.03 | 91 | 1009.8 |
| 20260509110042 | 69 | 308 | 3.0 | 8.0 | 0.00 | 0.04 | 0.03 | 91 | 1009.3 |
| 20260509104549 | 69 | 327 | 5.0 | 19.0 | 0.00 | 0.04 | 0.03 | 92 | 1009.2 |
| 20260509103110 | 69 | 216 | 12.0 | 20.0 | 0.01 | 0.04 | 0.03 | 93 | 1007.4 |
| 20260509101502 | 68 | 221 | 16.0 | 27.0 | 0.01 | 0.04 | 0.03 | 94 | 1006.9 |
| 20260509100028 | 68 | 204 | 16.0 | 24.0 | 0.01 | 0.04 | 0.03 | 93 | 1007.3 |
| 20260509094555 | 68 | 199 | 14.0 | 21.0 | 0.01 | 0.04 | 0.03 | 93 | 1007.7 |
| 20260509093116 | 68 | 238 | 10.0 | 15.0 | 0.00 | 0.03 | 0.02 | 94 | 1008.6 |
| 20260509091521 | 68 | 182 | 7.0 | 11.0 | 0.00 | 0.03 | 0.02 | 94 | 1008.7 |
| 20260509090044 | 68 | 209 | 8.0 | 12.0 | 0.02 | 0.03 | 0.02 | 94 | 1009.3 |
| 20260509084552 | 68 | 194 | 7.0 | 13.0 | 0.02 | 0.03 | 0.02 | 94 | 1009.6 |
| 20260509083108 | 68 | 180 | 7.0 | 10.0 | 0.02 | 0.03 | 0.02 | 93 | 1010.1 |
| 20260509081615 | 68 | 201 | 4.0 | 6.0 | 0.02 | 0.03 | 0.02 | 93 | 1011.1 |
| 20260509080019 | 68 | 160 | 4.0 | 7.0 | 0.00 | 0.01 | 0.00 | 93 | 1011.3 |
| 20260509074510 | 67 | 347 | 0.0 | 4.0 | 0.00 | 0.01 | 0.00 | 93 | 1012.4 |
| 20260509073011 | 67 | 27 | 5.0 | 8.0 | 0.00 | 0.01 | 0.00 | 93 | 1012.7 |
| 20260509071522 | 67 | 328 | 0.0 | 3.0 | 0.00 | 0.01 | 0.00 | 93 | 1012.6 |
| 20260509070043 | 66 | 329 | 2.0 | 5.0 | 0.00 | 0.01 | 0.00 | 93 | 1012.3 |
| 20260509064620 | 66 | 348 | 4.0 | 8.0 | 0.00 | 0.01 | 0.00 | 92 | 1011.7 |
| 20260509063012 | 66 | 111 | 1.0 | 2.0 | 0.00 | 0.01 | 0.00 | 91 | 1010.6 |
| 20260509061522 | 66 | 111 | 1.0 | 3.0 | 0.00 | 0.01 | 0.00 | 91 | 1010.3 |
| 20260509060025 | 67 | 94 | 0.0 | 2.0 | 0.00 | 0.01 | 0.00 | 91 | 1010.7 |
| 20260509054539 | 67 | 92 | 1.0 | 4.0 | 0.00 | 0.01 | 0.00 | 90 | 1010.6 |
| 20260509053052 | 67 | 81 | 1.0 | 3.0 | 0.00 | 0.01 | 0.00 | 90 | 1010.8 |
| 20260509051516 | 68 | 126 | 2.0 | 3.0 | 0.00 | 0.01 | 0.00 | 90 | 1010.5 |
| 20260509050046 | 68 | 191 | 2.0 | 6.0 | 0.00 | 0.01 | 0.00 | 90 | 1010.2 |
| 20260509044553 | 69 | 187 | 2.0 | 4.0 | 0.00 | 0.01 | 0.01 | 90 | 1010.2 |
| 20260509043100 | 69 | 174 | 3.0 | 5.0 | 0.00 | 0.01 | 0.01 | 89 | 1010.2 |
| 20260509041601 | 69 | 179 | 2.0 | 4.0 | 0.00 | 0.01 | 0.01 | 89 | 1010.2 |
| 20260509040101 | 69 | 181 | 2.0 | 4.0 | 0.00 | 0.01 | 0.01 | 89 | 1010.3 |
| 20260509034611 | 69 | 181 | 0.0 | 0.0 | 0.00 | 0.01 | 0.01 | 88 | 1010.5 |
| 20260509033123 | 70 | 181 | 0.0 | 0.0 | 0.00 | 0.01 | 0.01 | 87 | 1010.4 |
| 20260509031502 | 70 | 181 | 0.0 | 2.0 | 0.00 | 0.01 | 0.01 | 87 | 1010.4 |
| 20260509030002 | 70 | 181 | 1.0 | 4.0 | 0.00 | 0.01 | 0.01 | 86 | 1010.0 |
| 20260509024516 | 71 | 180 | 2.0 | 4.0 | 0.00 | 0.01 | 0.01 | 86 | 1009.7 |
| 20260509023025 | 71 | 181 | 0.0 | 0.0 | 0.00 | 0.01 | 0.01 | 85 | 1009.8 |
| 20260509021524 | 72 | 181 | 0.0 | 2.0 | 0.00 | 0.01 | 0.01 | 85 | 1009.6 |
| 20260509020035 | 72 | 181 | 0.0 | 4.0 | 0.00 | 0.01 | 0.01 | 84 | 1009.5 |
| 20260509014538 | 73 | 160 | 2.0 | 6.0 | 0.00 | 0.01 | 0.01 | 84 | 1009.2 |
| 20260509013046 | 73 | 165 | 1.0 | 4.0 | 0.00 | 0.01 | 0.01 | 84 | 1008.9 |
| 20260509011544 | 73 | 161 | 1.0 | 5.0 | 0.00 | 0.01 | 0.01 | 83 | 1008.5 |
| 20260509010047 | 74 | 175 | 2.0 | 4.0 | 0.00 | 0.01 | 0.01 | 82 | 1008.4 |
| 20260509004539 | 74 | 161 | 7.0 | 14.0 | 0.00 | 0.01 | 0.01 | 81 | 1008.3 |
| 20260509003037 | 75 | 161 | 5.0 | 9.0 | 0.00 | 0.01 | 0.01 | 80 | 1008.4 |
| 20260509001539 | 75 | 244 | 3.0 | 7.0 | 0.00 | 0.01 | 0.01 | 79 | 1008.3 |
| 20260509000033 | 76 | 196 | 4.0 | 10.0 | 0.00 | 0.01 | 0.01 | 79 | 1008.3 |
| 20260508234538 | 76 | 190 | 8.0 | 13.0 | 0.00 | 0.01 | 0.01 | 78 | 1008.3 |
| 20260508233042 | 76 | 173 | 8.0 | 11.0 | 0.00 | 0.01 | 0.01 | 78 | 1008.4 |
| 20260508231536 | 77 | 190 | 6.0 | 11.0 | 0.00 | 0.01 | 0.01 | 76 | 1008.3 |
| 20260508230047 | 77 | 171 | 6.0 | 12.0 | 0.00 | 0.01 | 0.01 | 76 | 1008.3 |
| 20260508224542 | 77 | 123 | 5.0 | 12.0 | 0.00 | 0.01 | 0.01 | 76 | 1008.5 |
| 20260508223056 | 77 | 138 | 4.0 | 11.0 | 0.00 | 0.01 | 0.01 | 76 | 1008.8 |
| 20260508221607 | 76 | 142 | 8.0 | 12.0 | 0.00 | 0.01 | 0.01 | 76 | 1008.6 |
| 20260508220014 | 76 | 140 | 8.0 | 13.0 | 0.00 | 0.01 | 0.01 | 77 | 1008.7 |
| 20260508214539 | 76 | 170 | 7.0 | 12.0 | 0.00 | 0.01 | 0.01 | 77 | 1008.9 |
| 20260508213005 | 75 | 148 | 7.0 | 16.0 | 0.00 | 0.01 | 0.01 | 77 | 1009.0 |
| 20260508211542 | 74 | 184 | 10.0 | 15.0 | 0.00 | 0.01 | 0.01 | 78 | 1009.3 |
| 20260508210109 | 73 | 161 | 9.0 | 14.0 | 0.00 | 0.01 | 0.01 | 80 | 1009.7 |
| 20260508204513 | 72 | 166 | 9.0 | 16.0 | 0.00 | 0.01 | 0.01 | 80 | 1010.0 |
| 20260508203036 | 71 | 124 | 7.0 | 14.0 | 0.00 | 0.01 | 0.01 | 82 | 1010.2 |